Hourly Data Report for October 28, 2014

All times are specified in Local Standard Time (LST). Add 1 hour to adjust for Daylight Saving Time where and when it is observed.

WINNIPEG A CS
MANITOBA

49°55'00.000" N
97°14'58.000" W
238.70 m
502S001
71849
XWG

Download Data

Hourly Data (October 2014)
Hourly Data Report for October 28, 2014
Temp Definition
°C
Dew Point Temp Definition
°C
Rel Hum Definition
%
Wind Dir Definition
10's deg

Wind Spd Definition
km/h
Visibility Definition
km
Stn Press Definition
kPa
Hmdx Definition


Wind Chill Definition


Weather Definition


TIME
00:00 4.4 2.1 86 34 16   97.66     LegendNANA
01:00 3.9 2.1 88 33 20   97.69     LegendNANA
02:00 3.0 1.9 93 32 27   97.71     LegendNANA
03:00 2.7 1.2 90 34 26   97.75     LegendNANA
04:00 2.3 0.9 90 33 27   97.77     LegendNANA
05:00 1.9 0.9 93 33 27   97.80     LegendNANA
06:00 1.7 0.8 94 32 27   97.80     LegendNANA
07:00 1.5 0.7 94 32 31   97.83     LegendNANA
08:00 1.6 0.3 91 32 31   97.90     LegendNANA
09:00 1.6 -0.1 88 33 36   97.99     LegendNANA
10:00 1.6 -0.2 88 34 34   98.05     LegendNANA
11:00 1.9 -0.2 86 34 35   98.09     LegendNANA
12:00 2.4 -0.4 82 34 35   98.16     LegendNANA
13:00 2.3 -0.7 80 33 39   98.21     LegendNANA
14:00 2.4 -0.7 80 33 39   98.29     LegendNANA
15:00 2.3 -0.2 84 34 36   98.38     LegendNANA
16:00 2.4 -0.9 79 35 33   98.50     LegendNANA
17:00 2.3 -1.1 78 35 31   98.61     LegendNANA
18:00 2.0 -1.2 79 35 27   98.69     LegendNANA
19:00 1.8 -1.1 81 33 21   98.77     LegendNANA
20:00 1.6 -1.1 82 33 26   98.79     LegendNANA
21:00 1.2 -0.5 88 32 18   98.84     LegendNANA
22:00 1.1 -0.6 89 31 17   98.92     LegendNANA
23:00 0.9 -0.8 89 32 21   98.96     LegendNANA

Notes on Data Quality.

Legend

  • E = Estimated
  • M = Missing
  • NA = Not Available
  • ‡ = Partner data that is not subject to review by the National Climate Archives
Date modified: